Regional Weather Roundup
Issued by NWS Mt. Holly, NJ

Home | Current Version | Previous Version | Text Only | Print | Product List | Glossary On
Versions: 1 2 3 4 5 6 7 8 9 10 11 12 13 14 15 16 17 18 19 20 21 22 23 24 25 26 27 28 29 30 31 32 33 34 35 36 37 38 39 40 41 42 43 44 45 46 47 48 49 50
000
ASUS41 KPHI 010112
RWRPHI

REGIONAL WEATHER ROUNDUP
NATIONAL WEATHER SERVICE MOUNT HOLLY NJ
900 PM EDT SAT APR 30 2016

NOTE:  "FAIR" INDICATES FEW OR NO CLOUDS BELOW 12,000 FEET WITH NO
SIGNIFICANT WEATHER AND/OR OBSTRUCTIONS TO VISIBILITY.

 * = STATION DOES NOT REPORT PRECIPITATION (E.G. RAIN, SNOW, ETC.)
        OR FOG.

NJZ015>026-010200-
SOUTHERN NEW JERSEY

CITY           SKY/WX    TMP DP  RH WIND       PRES   REMARKS
POMONA         CLEAR     48  39  71 SE5       30.24F
WILDWOOD*      CLOUDY    50  37  62 E7        30.24F
MILLVILLE      CLOUDY    50  37  61 SE8       30.24S
WRIGHTSTOWN    CLEAR     47  37  67 SE5       30.21F
MOUNT HOLLY    CLEAR     49  36  61 CALM      30.23S
TRENTON        CLEAR     50  35  56 SE7       30.22S

$$
NJZ001>014-010200-
NORTHERN NEW JERSEY

CITY           SKY/WX    TMP DP  RH WIND       PRES   REMARKS
SUSSEX         MOCLDY    54  41  61 CALM      30.22R
ANDOVER*         N/A     51  43  74 CALM      30.21R
MORRISTOWN     CLEAR     48  37  66 CALM      30.23S
NEWARK         PTCLDY    55  35  47 SE7       30.24R
TETERBORO      CLEAR     53  31  42 S6        30.23R
CALDWELL       CLEAR     54  30  40 CALM      30.23R
SOMERVILLE     CLEAR     52  35  52 SE3       30.21R
ALLAIRE*       CLEAR     48  37  65 SE5       30.26S
TOMS RIVER*    CLEAR     45  34  65 SE3       30.25F

$$
PAZ043-044-047-054-055-060>062-066>071-010200-
EASTERN PENNSYLVANIA

CITY           SKY/WX    TMP DP  RH WIND       PRES   REMARKS
PHILADELPHIA   CLOUDY    55  36  48 SE10      30.23S
NORTH PHILA    CLOUDY    55  36  48 S6        30.24S
BLUE BELL*     CLOUDY    54  39  58 SE6       30.21S
DOYLESTOWN     CLOUDY    53  39  59 SE6       30.20F
QUAKERTOWN*    CLOUDY    55  43  62 CALM      30.21S
PERKASIE*      CLOUDY    52  45  76 E3        30.21F
POTTSTOWN      CLOUDY    55  43  63 CALM      30.21F
LANCASTER      CLOUDY    54  45  71 SE6       30.19S
COATESVILLE    MOCLDY    54  46  76 VRB5      30.22S
READING        CLOUDY    56  41  57 SE5       30.19S
ALLENTOWN      CLOUDY    57  41  55 SE3       30.20F
MOUNT POCONO   CLOUDY    48  39  71 S5        30.18F
HAZLETON       CLOUDY    50  41  71 SE3       30.21F
LEHIGHTON      CLOUDY    52  45  76 CALM      30.21S
WILKES BARRE   CLOUDY    54  41  61 CALM      30.18S

$$
DEZALL-MDZ008-012-015-019-020-010200-
DELAWARE AND EASTERN MARYLAND

CITY           SKY/WX    TMP DP  RH WIND       PRES   REMARKS
WILMINGTON     CLOUDY    54  43  66 S12       30.23S
DOVER          CLOUDY    51  43  73 SE8       30.22S
GEORGETOWN     CLOUDY    50  41  71 E8        30.23S
EASTON         CLOUDY   N/A N/A N/A SE7         N/A
PATUXENT       CLOUDY    55  48  77 SE5       30.21S
OCEAN CITY     CLOUDY    51  44  77 E8        30.24S
WALLOPS ISLAND CLOUDY    52  45  77 E9        30.24R
CAMBRIDGE      CLOUDY    52  45  76 E7        30.23R
SALISBURY      CLOUDY    50  43  77 E5        30.23R

$$
PAZ001-021-NYZ056-072-MDZ011-DCZ001-010200-
OTHER NEARBY LOCATIONS

CITY           SKY/WX    TMP DP  RH WIND       PRES   REMARKS
HARRISBURG     CLOUDY    57  45  64 S7        30.18R
STATE COLLEGE  LGT RAIN  52  45  76 S3        30.15S
WILLIAMSPORT   CLOUDY    55  41  59 E8        30.16F
BINGHAMTON     CLOUDY    49  39  68 S3        30.17F
NEW YORK CITY  CLEAR     52  35  52 VRB3      30.27R
BALTIMORE      LGT RAIN  55  48  77 CALM      30.20S
WASHINGTON DC  LGT RAIN  55  49  80 SE6       30.21R

$$



USA.gov is the U.S. government's official web portal to all federal, state and local government web resources and services.